User: anonymous   Login
Location: Most
(50.5133°N, 13.6207°E)
Time: 16:44:55
(UTC+02:00)
Language:

Oscar 11 - Orbit

View from above orbital plane
View from above orbital plane
View from above satellite
View from above satellite

Ground track
Ground track

The orbit data is extracted from the following two-line orbital elements,

1 14781U 84021B   24105.88493713  .00002835  00000-0  32754-3 0  9993
2 14781  97.6999  77.0937 0006499 290.4859  69.5659 14.86344186139086
Epoch (UTC): 14 April 2024 21:14:18
Eccentricity: 0.0006499
inclination: 97.6999°
perigee height: 605 km
apogee height: 614 km
right ascension of ascending node: 77.0937°
argument of perigee: 290.4859°
revolutions per day: 14.86344186
mean anomaly at epoch: 69.5659°
orbit number at epoch: 13908

The dashed part of the orbit path shows where the satellite is in the earth's shadow,  

DLR